|
2003 LH |
| ephemeris |
date |
magn |
radius |
delta |
ra |
dec |
elong |
phase |
| Today | 5 Sep 2026 | 27.0 | 0.818 AU | 1.722 AU | 09h43m | +09°06' | 17.5° | 21.8° |
2003 LH - 2026-09-05
astro.vanbuitenen.nl
The interactive orbit chart above shows the body's path through the solar system and its position at the given date.
Green and blue lines are shown perpendicular to the ecliptic plane: Green if the path is above the ecliptic plane, blue if it is below.
(Left-click and drag to rotate the view; Right-click and drag to move the view; Use scroll wheel to zoom in our out.)
The orbital elements of 2003 LH are:
e (Eccentricity) : 0.1490900
a (Semimajor axis) : 0.9615891
i (Inclination) : 10.80712
Ω (Longitude of ascending node) : 247.11968
ω (Argument of perihelion) : 238.77439
M (Mean anomaly) : 266.76426
Epoch : 2026 Jun 09
L (Longitude of perihelion) : 305.43767
B (Latitude of perihelion) : -9.22665
P (Orbital period in years) : 0.94
The light curve chart below shows the estimated development of the minor planet's magnitude.
The all-sky chart below shows the path of the minor planet over the same period as the light curve. The current position is marked yellow.
The following chart shows the path of the minor planet in the next few days. The field of view is optimized for (~10x50) binoculars and finderscopes.
Ephemerides:
Date Time RA (2000) DEC (2000) delta radius elong phase PA magn
2026-09-05 00:00 UT 09 43 40.9 +09 06 41 1.722 0.818 17.5 21.8 276 27.0
2026-09-05 01:36 UT 09 43 58.5 +09 04 53 1.722 0.818 17.5 21.8 276 27.0
2026-09-06 00:00 UT 09 48 04.8 +08 39 42 1.723 0.818 17.3 21.5 275 27.0
2026-09-07 00:00 UT 09 52 28.0 +08 12 35 1.725 0.818 17.1 21.3 275 27.0
2026-09-08 00:00 UT 09 56 50.6 +07 45 21 1.728 0.818 17.0 21.1 275 27.0
2026-09-09 00:00 UT 10 01 12.6 +07 17 59 1.730 0.818 16.8 20.8 275 27.0
2026-09-10 00:00 UT 10 05 34.1 +06 50 31 1.732 0.819 16.6 20.6 275 27.0
2026-09-11 00:00 UT 10 09 55.0 +06 22 58 1.734 0.819 16.4 20.3 275 27.0
2026-09-12 00:00 UT 10 14 15.3 +05 55 20 1.736 0.819 16.2 20.1 275 27.0
Terminology:
delta: distance between minor planet and earth in AU
radius: distance between minor planet and sun in AU
magn: magnitude (brightness) estimate
ra: right ascension in hours (24h = 360deg)
dec: declination in degrees
elong: elongation in degrees (angle sun-earth-minor planet)
phase: phase angle in degrees (angle sun-minor planet-earth)
AU: Astronomical Unit (mean distance between earth and sun: 149597870.7 km
Orbital elements provided by the MPC (Minor Planet Center).
Calculations by a modified version of AAPlus, a C# implementation of the AA+ project by PJ Naughter from the algorithms presented in the book "Astronomical Algorithms" by Jean Meeus.
NGC2000 dso catalog and star labels from VizieR as provided by the Strasbourg astronomical Data Center.
Tycho2 catalog from the ESO archive.